Regional Weather Roundup
Issued by NWS Kansas City/Pleasant Hill, MO

Home | Current Version | Previous Version | Graphics & Text | Print | Product List | Glossary Off
Versions: 1 2 3 4 5 6 7 8 9 10 11 12 13 14 15 16 17 18 19 20 21 22 23 24 25 26 27 28 29 30 31 32 33 34 35 36 37 38 39 40 41 42 43 44 45 46 47 48 49 50

000
ASUS43 KEAX 101810
RWREAX

WEATHER ROUNDUP FOR EASTERN KANSAS AND NORTHWEST MISSOURI
NATIONAL WEATHER SERVICE KANSAS CITY/PLEASANT HILL MO
1200 PM CST WED FEB 10 2016

KSZ040-057-103>105-MOZ028-029-037-043-101900-
...KANSAS CITY METROPOLITAN AREA...

CITY           SKY/WX    TMP DP  RH WIND       PRES   REMARKS
K.C. INTL      PTSUNNY   38  17  42 S21       30.01F WCI  28
6HR MIN TEMP:  23; 6HR MAX TEMP:  38; 6HR PCP: TRACE;

K.C. DOWNTOWN  MOSUNNY   39  15  37 S17       30.03F WCI  30
6HR MIN TEMP:  26; 6HR MAX TEMP:  39;

LEES SUMMIT    SUNNY     35  14  42 S17G25    30.04F WCI  25
6HR MIN TEMP:  23; 6HR MAX TEMP:  36;

OLATHE - IXD   SUNNY     38  15  39 SW20G25   30.02F WCI  28
6HR MIN TEMP:  23; 6HR MAX TEMP:  38;

OLATHE - OJC   CLOUDY    37  15  40 S16G22    30.02F WCI  28
6HR MIN TEMP:  22; 6HR MAX TEMP:  37;

LAWRENCE       SUNNY     41  16  36 S17G23    30.02F WCI  32

$$

MOZ001>008-011>017-020>025-030>033-038>040-044>046-053-054-101900-
...NORTHERN AND CENTRAL MISSOURI...

CITY           SKY/WX    TMP DP  RH WIND       PRES   REMARKS
ST. JOSEPH     CLOUDY    37  16  42 SW18      29.99F WCI  27
6HR MIN TEMP:  24; 6HR MAX TEMP:  37; 6HR PCP: TRACE;

MOSBY          CLOUDY    34  14  44 S12G17    30.05F WCI  25
WARRENSBURG    CLOUDY    34  14  44 S14       30.07F WCI  24
WHITEMAN AFB   PTSUNNY   33  14  44 SW13      30.07F WCI  24
6HR MIN TEMP:  19; 6HR MAX TEMP:  33;

CLINTON          N/A     36  18  48 S10G21    30.09F WCI  28
SEDALIA        SUNNY     33  14  45 S12       30.09F WCI  24
6HR MIN TEMP:  19; 6HR MAX TEMP:  34; 6HR PCP: TRACE;

WARSAW         NOT AVBL
CHILLICOTHE      N/A     29  21  72 SE9       30.07F WCI  20
6HR MIN TEMP:  18; 6HR MAX TEMP:  29; 6HR PCP:  0.01;

KIRKSVILLE     LGT SNOW  20  15  81 SE6       30.08F WCI  12
6HR MIN TEMP:  13; 6HR MAX TEMP:  20; 6HR PCP:  0.06;


$$

MOZ041-047>049-056>058-063>065-088>090-097-101900-
...EASTERN AND SOUTHERN MISSOURI...

CITY           SKY/WX    TMP DP  RH WIND       PRES   REMARKS
ST. LOUIS INTL CLOUDY    24   6  46 W9        30.17S WCI  14
6HR MIN TEMP:  15; 6HR MAX TEMP:  24;

SPIRIT OF STL  CLOUDY    23   9  55 W8        30.18S WCI  14
COLUMBIA       LGT SNOW  21  18  88 S6        30.12F VSB 1   WCI  13
JEFFERSON CITY LGT SNOW  22  19  89 S3        30.16F VSB 1
ROLLA          CLOUDY    20  17  88 SW7       30.12F FOG     WCI  11
OSAGE BEACH    MOSUNNY   30  12  47 S3        30.13F
SPRINGFIELD    SUNNY     37  11  34 S10       30.11F WCI  30
BRANSON        MOSUNNY   37  10  32 S9        30.14F WCI  31
JOPLIN         SUNNY     40  15  36 SW22G32   30.10F WCI  30
WEST PLAINS    PTSUNNY   32  10  40 S6        30.16F WCI  26

$$

IAZ060-094-KSZ022-034>040-054-083-096-NEZ052-066-093-101900-
...KANSAS...SOUTHEAST NEBRASKA AND IOWA...

CITY           SKY/WX    TMP DP  RH WIND       PRES   REMARKS
TOPEKA         SUNNY     43  18  36 SW12      29.99F
6HR MIN TEMP:  25; 6HR MAX TEMP:  43;

MANHATTAN      SUNNY     47  26  44 SW12      29.96F
EMPORIA        SUNNY     47  22  37 SW15      30.00F
CHANUTE        SUNNY     41  16  36 S23       30.06F WCI  31
WICHITA        SUNNY     49  27  42 SW14      30.01F
OMAHA          MOSUNNY   33  20  58 S9        29.94F WCI  25
LINCOLN        SUNNY     34  25  69 SW9       29.92F WCI  27
FALLS CITY     MOSUNNY   40  19  43 S14G21    29.94F WCI  32
LAMONI         CLOUDY    22  18  85 SE6       30.01F WCI  14
DES MOINES     FLURRIES  17  11  77 E8        30.07F WCI   7

$$




USA.gov is the U.S. government's official web portal to all federal, state and local government web resources and services.